Cincinnati, OH

5:42 PM EDT on March 23, 2017 (GMT -0400)
Cincinnati Municipal-Lunken

Weather History for KLUK - November, 2013

Change the Weather History Date:

Monday, November 4, 2013

  Actual Average Record
Temperature  
Mean Temperature 46 °F -  
Max Temperature 57 °F 57 °F 80 °F (1987)
Min Temperature 34 °F 40 °F 20 °F (1991)
Degree Days  
Heating Degree Days 20    
Moisture  
Dew Point 39 °F    
Average Humidity 78    
Maximum Humidity 100    
Minimum Humidity 51    
Precipitation  
Precipitation 0.00 in - - ()
Sea Level Pressure  
Sea Level Pressure 30.38 in    
Wind  
Wind Speed 2 mph (SSE)    
Max Wind Speed 10 mph    
Max Gust Speed -    
Visibility 10 miles    
Events      
Averages and records for this station are not official NWS values.
T = Trace of Precipitation, MM = Missing Value Source: NWS Daily Summary

Daily Weather History Graph

Daily Weather History Graph

Search for Another Location

Airport or City:

Trip Planner

Search our weather history database for the weather conditions in past years. The results will help you decide how hot, cold, wet, or windy it might be!

Date:

Astronomy

Nov. 04, 2013 Rise Set
Actual Time 7:08 AM EST 5:33 PM EST
Civil Twilight 6:40 AM EST 6:01 PM EST
Nautical Twilight 6:09 AM EST 6:32 PM EST
Astronomical Twilight 5:37 AM EST 7:04 PM EST
Moon 8:17 AM EST (11/4) 6:37 PM EST (11/4)
Length of Visible Light 11h 20m
Length of Day
10h 24m
New Moon, 2% of the Moon is Illuminated
Nov 4
New Moon
Nov 10
First Quarter
Nov 17
Full
Nov 25
Last Quarter
Dec 2
New

Hourly Weather History & Observations

Time (EST) Temp. Windchill Dew Point Humidity Pressure Visibility Wind Dir Wind Speed Gust Speed Precip Events Conditions
12:53 AM 35.1 °F - 35.1 °F 100% 30.40 in 6.0 mi Calm Calm - N/A   Clear
1:53 AM 34.0 °F - 33.1 °F 96% 30.41 in 7.0 mi Calm Calm - N/A   Clear
2:53 AM 35.1 °F - 34.0 °F 96% 30.40 in 10.0 mi Calm Calm - N/A   Clear
3:53 AM 35.1 °F - 34.0 °F 96% 30.40 in 10.0 mi Calm Calm - N/A   Clear
4:53 AM 36.0 °F 33.3 °F 35.1 °F 97% 30.41 in 9.0 mi NE 3.5 mph - N/A   Clear
5:53 AM 36.0 °F 33.3 °F 35.1 °F 97% 30.43 in 9.0 mi NE 3.5 mph - N/A   Clear
6:53 AM 35.1 °F 32.2 °F 33.1 °F 92% 30.42 in 10.0 mi NE 3.5 mph - N/A   Clear
7:53 AM 35.1 °F - 34.0 °F 96% 30.43 in 10.0 mi Calm Calm - N/A   Clear
8:53 AM 42.1 °F - 36.0 °F 79% 30.44 in 10.0 mi Calm Calm - N/A   Clear
9:53 AM 46.9 °F - 36.0 °F 66% 30.43 in 10.0 mi South 3.5 mph - N/A   Clear
10:53 AM 50.0 °F - 36.0 °F 59% 30.41 in 10.0 mi SE 8.1 mph - N/A   Clear
11:53 AM 53.1 °F - 39.0 °F 59% 30.40 in 10.0 mi SSW 9.2 mph - N/A   Clear
12:53 PM 54.0 °F - 39.0 °F 57% 30.35 in 10.0 mi SSW 10.4 mph - N/A   Clear
1:53 PM 55.9 °F - 39.9 °F 55% 30.33 in 10.0 mi South 5.8 mph - N/A   Clear
2:53 PM 57.9 °F - 39.9 °F 51% 30.33 in 10.0 mi SW 4.6 mph - N/A   Clear
3:53 PM 57.9 °F - 42.1 °F 56% 30.35 in 10.0 mi South 5.8 mph - N/A   Clear
4:53 PM 55.9 °F - 42.1 °F 60% 30.33 in 10.0 mi ESE 4.6 mph - N/A   Clear
5:53 PM 53.1 °F - 44.1 °F 71% 30.33 in 10.0 mi Calm Calm - N/A   Clear
6:53 PM 50.0 °F - 44.1 °F 80% 30.35 in 10.0 mi Calm Calm - N/A   Clear
7:53 PM 51.1 °F - 45.0 °F 80% 30.36 in 10.0 mi Calm Calm - N/A   Clear
8:53 PM 50.0 °F - 44.1 °F 80% 30.36 in 10.0 mi Calm Calm - N/A   Clear
9:53 PM 50.0 °F - 45.0 °F 83% 30.37 in 10.0 mi Calm Calm - N/A   Clear
10:53 PM 48.9 °F - 45.0 °F 86% 30.36 in 10.0 mi Calm Calm - N/A   Partly Cloudy
11:53 PM 48.9 °F - 45.0 °F 86% 30.36 in 10.0 mi Calm Calm - N/A   Partly Cloudy